Location: Alladorf
(49.9620°N, 11.3790°E)
Time: 19:32:12
(UTC+00:00)

Cosmos 2278 Rocket - Pass Details

Date: 29 November 2020
Orbit: 839 x 847 km, 71.0° (Epoch: 24 January)

Event Time Altitude Azimuth Distance (km) Brightness Sun altitude
Rises 05:26:00 0° 177° (S) 3,381 5.6 -12.8°
Reaches altitude 10° 05:28:38 10° 167° (SSE) 2,452 5.0 -12.4°
Maximum altitude 05:33:34 33° 106° (ESE) 1,394 4.2 -11.6°
Drops below altitude 10° 05:38:33 10° 44° (NE) 2,471 4.9 -10.9°
Sets 05:41:13 0° 35° (NE) 3,412 5.5 -10.5°
